TimeCST,TemperatureF,Dew PointF,Humidity,Sea Level PressureIn,VisibilityMPH,Wind Direction,Wind SpeedMPH,Gust SpeedMPH,PrecipitationIn,Events,Conditions,WindDirDegrees,DateUTC
12:08 AM,66.2,62.6,88,30.20,7.0,SSE,5.8,-,N/A,,Overcast,160,2013-01-29 06:08:00
12:53 AM,64.9,62.1,90,30.18,6.0,SSE,5.8,-,N/A,,Overcast,150,2013-01-29 06:53:00
1:53 AM,64.9,62.1,90,30.17,5.0,Calm,Calm,-,N/A,,Overcast,0,2013-01-29 07:53:00
2:43 AM,64.4,62.6,94,30.17,6.0,East,4.6,-,N/A,,Overcast,100,2013-01-29 08:43:00
2:53 AM,64.9,62.1,90,30.16,7.0,ESE,4.6,-,N/A,,Overcast,110,2013-01-29 08:53:00
3:32 AM,64.4,62.6,94,30.16,7.0,ESE,3.5,-,N/A,,Overcast,110,2013-01-29 09:32:00
3:53 AM,64.9,62.1,90,30.15,6.0,SE,4.6,-,N/A,,Overcast,130,2013-01-29 09:53:00
4:51 AM,64.4,62.6,94,30.15,5.0,SE,5.8,-,N/A,,Overcast,130,2013-01-29 10:51:00
4:53 AM,64.9,62.1,90,30.14,5.0,SE,4.6,-,N/A,,Overcast,140,2013-01-29 10:53:00
5:53 AM,64.9,62.1,90,30.14,5.0,SE,6.9,-,N/A,,Overcast,140,2013-01-29 11:53:00
6:53 AM,64.9,62.1,90,30.14,6.0,SE,9.2,-,N/A,,Overcast,140,2013-01-29 12:53:00
7:06 AM,66.2,62.6,88,30.14,5.0,SSE,10.4,-,N/A,,Overcast,150,2013-01-29 13:06:00
7:53 AM,66.0,62.1,87,30.14,7.0,SSE,9.2,-,N/A,,Overcast,150,2013-01-29 13:53:00
8:18 AM,66.2,62.6,88,30.14,9.0,SSE,6.9,-,N/A,,Overcast,150,2013-01-29 14:18:00
8:53 AM,68.0,63.0,84,30.14,10.0,SSE,9.2,-,N/A,,Overcast,160,2013-01-29 14:53:00
9:11 AM,69.8,62.6,78,30.13,10.0,SSE,9.2,-,N/A,,Overcast,160,2013-01-29 15:11:00
9:53 AM,70.0,63.0,78,30.13,10.0,SSE,13.8,-,N/A,,Overcast,160,2013-01-29 15:53:00
10:53 AM,71.1,64.0,78,30.12,10.0,South,9.2,-,N/A,,Overcast,170,2013-01-29 16:53:00
11:19 AM,73.4,64.4,73,30.11,10.0,South,12.7,-,N/A,,Overcast,170,2013-01-29 17:19:00
11:53 AM,75.9,64.9,69,30.06,10.0,SSE,16.1,28.8,N/A,,Overcast,160,2013-01-29 17:53:00
12:45 PM,77.0,64.4,65,30.04,10.0,South,13.8,23.0,N/A,,Overcast,190,2013-01-29 18:45:00
12:53 PM,77.0,64.9,66,30.03,10.0,South,18.4,27.6,N/A,,Overcast,170,2013-01-29 18:53:00
1:12 PM,78.8,64.4,61,30.02,10.0,South,20.7,-,N/A,,Overcast,180,2013-01-29 19:12:00
1:53 PM,77.0,64.9,66,30.00,10.0,South,19.6,27.6,N/A,,Overcast,180,2013-01-29 19:53:00
2:04 PM,77.0,64.4,65,30.00,10.0,South,17.3,27.6,N/A,,Overcast,180,2013-01-29 20:04:00
2:11 PM,75.2,64.4,69,30.00,10.0,South,18.4,24.2,N/A,,Overcast,180,2013-01-29 20:11:00
2:21 PM,77.0,64.4,65,30.00,10.0,South,17.3,-,N/A,,Overcast,190,2013-01-29 20:21:00
2:53 PM,77.0,64.9,66,29.99,10.0,South,12.7,-,N/A,,Overcast,180,2013-01-29 20:53:00
3:17 PM,75.2,64.4,69,30.00,10.0,South,15.0,-,N/A,,Overcast,190,2013-01-29 21:17:00
3:53 PM,75.9,64.9,69,29.99,10.0,South,13.8,18.4,N/A,,Overcast,190,2013-01-29 21:53:00
4:53 PM,73.9,64.9,73,29.97,10.0,South,11.5,-,N/A,,Mostly Cloudy,170,2013-01-29 22:53:00
5:53 PM,72.0,66.0,81,29.97,10.0,SSE,13.8,-,N/A,,Overcast,160,2013-01-29 23:53:00
6:38 PM,71.6,66.2,83,29.98,10.0,SSE,9.2,-,0.00,Rain,Light Rain,160,2013-01-30 00:38:00
6:53 PM,70.0,66.9,90,29.97,7.0,SSE,12.7,-,0.01,Rain,Light Rain,160,2013-01-30 00:53:00
7:53 PM,70.0,66.9,90,29.97,10.0,SSE,11.5,-,0.00,Rain,Light Rain,160,2013-01-30 01:53:00
8:38 PM,69.8,66.2,88,29.96,8.0,SSE,10.4,-,0.00,Rain,Light Rain,160,2013-01-30 02:38:00
8:53 PM,71.1,66.9,87,29.96,10.0,South,12.7,-,0.00,,Overcast,180,2013-01-30 02:53:00
9:53 PM,71.1,66.9,87,29.94,7.0,SSE,12.7,-,0.01,Rain,Light Rain,150,2013-01-30 03:53:00
10:27 PM,69.8,68.0,94,29.93,1.8,SSE,9.2,-,0.17,Rain,Heavy Rain,150,2013-01-30 04:27:00
10:36 PM,69.8,68.0,94,29.93,3.0,SSE,11.5,-,0.21,Rain,Heavy Rain,160,2013-01-30 04:36:00
10:53 PM,71.1,68.0,90,29.92,7.0,SSE,13.8,-,0.22,Rain,Light Rain,160,2013-01-30 04:53:00
11:06 PM,71.6,68.0,88,29.92,8.0,South,18.4,23.0,0.00,,Overcast,170,2013-01-30 05:06:00
11:43 PM,71.6,68.0,88,29.91,9.0,SSE,15.0,-,0.00,,Overcast,160,2013-01-30 05:43:00
11:53 PM,72.0,68.0,87,29.89,10.0,South,12.7,-,0.00,,Overcast,170,2013-01-30 05:53:00